Погода в Нижней Маноме

Россия / Хабаровский край     49°19′37″N   136°37′47″E
темп.,
°C
ветер,
м/с
пор.,
м/с
влажн.,
%
обл.,
%
осадки,
мм/ч
давл.,
гПа
погр.,
м
10 мая, пн
пн1001:00+4ссв51488100 0.0 1006656
04:00+3ссв61486100 0.0 1007633
07:00+3ссв6138088 0.0 1009627
10:00+6ссв6964100 0.0 1010928
13:00+9ссв795381 0.0 10101329
16:00+9с675697 0.0 10101320
19:00+8с596448 0.0 1011839
22:00+3с3107973 0.0 1013324
11 мая, вт
вт1101:00+1ссв248959 0.0 101499
04:00+1ссв258893 0.0 1015121
07:00+4ссв257663 0.0 1016251
10:00+9с335165 0.0 1016942
13:00+13с334135 0.0 10161537
16:00+15ссз223742 0.0 10151899
19:00+13зсз234612 0.0 1016129
22:00+7ю11594 0.0 101710
12 мая, ср
ср1201:00+5ю22735 0.0 101812
04:00+4ююв11845 0.0 101810
07:00+7юв126955 0.0 1018103
10:00+14ююз4642100 0.0 10161500
13:00+18ююз4633100 0.0 10121968
16:00+19юз5832100 0.0 10092363
19:00+14юз41055100 0.0 1009611
22:00+11ю51386100 2.3 10091119
13 мая, чт
чт1301:00+11ююз41286100 1.0 10081055
04:00+10ю6128197 1.2 1007873
07:00+11ююз6128189 0.2 1006995
10:00+10ююз51186100 0.6 10061184
13:00+15юз61057100 0.6 10061825
16:00+17з6114463 0.7 10062234
19:00+15з245325 0.0 1005104
22:00+9юз11750 0.4 100812
14 мая, пт
пт1401:00+8ю228243 0.0 100918
04:00+7ю2282100 0.0 100922
07:00+10юв1173100 0.0 101073
10:00+17ююз36523 0.0 1008629
13:00+23юз5833100 0.0 10062647
16:00+24юз5926100 0.0 10043157
19:00+21ю3739100 0.0 1002224
22:00+16юв3548100 0.0 100086